Hourly Weather Rudenka

Today, 22 April, Thursday

Time Temperature Precipitation Wind Pressure Humidity
00:00 +6°C° 0 mm 2 mps 741 mmHg 89%
01:00 +6°C° 0 mm 2 mps 742 mmHg 89%
02:00 +6°C° 0 mm 2 mps 742 mmHg 90%
03:00 +6°C° 0 mm 2 mps 742 mmHg 90%
04:00 +5°C° 0 mm 2 mps 742 mmHg 90%
05:00 +5°C° 0 mm 2 mps 742 mmHg 90%
06:00 +7°C° 0 mm 2 mps 742 mmHg 85%
07:00 +8°C° 0 mm 3 mps 742 mmHg 80%
08:00 +10°C° 0 mm 3 mps 742 mmHg 73%
09:00 +11°C° 0.3 mm 4 mps 742 mmHg 66%
10:00 +12°C° 0.3 mm 5 mps 742 mmHg 59%
11:00 +14°C° 0.3 mm 6 mps 742 mmHg 52%
12:00 +14°C° 0.1 mm 5 mps 742 mmHg 50%
13:00 +15°C° 0.1 mm 5 mps 742 mmHg 48%
14:00 +15°C° 0.1 mm 5 mps 742 mmHg 46%
15:00 +14°C° 0.3 mm 5 mps 742 mmHg 53%
16:00 +13°C° 0.3 mm 5 mps 742 mmHg 61%
17:00 +12°C° 0.3 mm 4 mps 742 mmHg 68%
18:00 +11°C° 0.4 mm 4 mps 742 mmHg 73%
19:00 +9°C° 0.4 mm 3 mps 742 mmHg 79%
20:00 +8°C° 0.4 mm 3 mps 743 mmHg 84%
21:00 +7°C° 0 mm 3 mps 743 mmHg 84%
22:00 +7°C° 0 mm 3 mps 743 mmHg 83%
23:00 +5°C° 0 mm 3 mps 743 mmHg 82%

Tomorrow, 23 April, Friday

Time Temperature Precipitation Wind Pressure Humidity
00:00 +5°C° 0 mm 3 mps 743 mmHg 81%
01:00 +4°C° 0 mm 3 mps 743 mmHg 79%
02:00 +4°C° 0 mm 3 mps 743 mmHg 77%
03:00 +3°C° 0 mm 3 mps 743 mmHg 80%
04:00 +2°C° 0 mm 3 mps 743 mmHg 84%
05:00 +1°C° 0 mm 3 mps 743 mmHg 87%
06:00 +1°C° 0 mm 4 mps 744 mmHg 80%
07:00 +2°C° 0 mm 5 mps 744 mmHg 74%
08:00 +3°C° 0 mm 5 mps 744 mmHg 68%
09:00 +3°C° 0 mm 5 mps 744 mmHg 64%
10:00 +5°C° 0 mm 5 mps 744 mmHg 60%
11:00 +5°C° 0 mm 5 mps 745 mmHg 56%
12:00 +6°C° 0 mm 5 mps 745 mmHg 55%
13:00 +6°C° 0 mm 5 mps 745 mmHg 55%
14:00 +6°C° 0 mm 5 mps 745 mmHg 54%
15:00 +6°C° 0.1 mm 5 mps 745 mmHg 55%
16:00 +6°C° 0.1 mm 4 mps 745 mmHg 57%
17:00 +6°C° 0.1 mm 4 mps 744 mmHg 58%
18:00 +5°C° 0 mm 3 mps 744 mmHg 64%
19:00 +3°C° 0 mm 3 mps 745 mmHg 71%
20:00 +3°C° 0 mm 2 mps 745 mmHg 77%
21:00 +3°C° 0 mm 2 mps 744 mmHg 80%
22:00 +2°C° 0 mm 2 mps 744 mmHg 82%
23:00 +1°C° 0 mm 3 mps 744 mmHg 84%

Day after tomorrow, 24 April, Saturday

Time Temperature Precipitation Wind Pressure Humidity
00:00 +1°C° 0.2 mm 3 mps 744 mmHg 88%
01:00 0°C° 0.2 mm 3 mps 744 mmHg 92%
02:00 0°C° 0.2 mm 3 mps 744 mmHg 96%
03:00 -2°C° 0.7 mm 4 mps 744 mmHg 96%
04:00 -2°C° 0.7 mm 4 mps 744 mmHg 96%
05:00 -2°C° 0.7 mm 5 mps 744 mmHg 95%
06:00 -1°C° 0.2 mm 5 mps 744 mmHg 90%
07:00 -1°C° 0.2 mm 5 mps 745 mmHg 84%
08:00 -2°C° 0.2 mm 6 mps 745 mmHg 78%
09:00 0°C° 0.1 mm 5 mps 745 mmHg 73%
10:00 +1°C° 0.1 mm 5 mps 745 mmHg 68%
11:00 +2°C° 0.1 mm 5 mps 745 mmHg 64%
12:00 +3°C° 0.2 mm 6 mps 745 mmHg 60%
13:00 +4°C° 0.2 mm 6 mps 745 mmHg 56%
14:00 +5°C° 0.2 mm 6 mps 745 mmHg 52%
15:00 +4°C° 0.3 mm 6 mps 745 mmHg 57%
16:00 +4°C° 0.3 mm 6 mps 745 mmHg 61%
17:00 +3°C° 0.3 mm 6 mps 745 mmHg 65%
18:00 +2°C° 0.1 mm 5 mps 745 mmHg 68%
19:00 +1°C° 0.1 mm 4 mps 745 mmHg 72%
20:00 0°C° 0.1 mm 4 mps 745 mmHg 75%
21:00 -1°C° 0 mm 4 mps 745 mmHg 76%
22:00 -1°C° 0 mm 4 mps 745 mmHg 78%
23:00 -2°C° 0 mm 4 mps 745 mmHg 80%

25 April, Sunday

Time Temperature Precipitation Wind Pressure Humidity
00:00 -2°C° 0 mm 4 mps 745 mmHg 81%
01:00 -3°C° 0 mm 4 mps 745 mmHg 81%
02:00 -3°C° 0 mm 4 mps 745 mmHg 82%
03:00 -3°C° 0 mm 4 mps 745 mmHg 84%
04:00 -4°C° 0 mm 4 mps 745 mmHg 85%
05:00 -4°C° 0 mm 4 mps 745 mmHg 87%
06:00 -3°C° 0 mm 4 mps 745 mmHg 82%
07:00 -2°C° 0 mm 5 mps 745 mmHg 77%
08:00 -1°C° 0 mm 5 mps 745 mmHg 73%
09:00 0°C° 0 mm 5 mps 745 mmHg 68%
10:00 0°C° 0 mm 5 mps 745 mmHg 64%
11:00 +1°C° 0 mm 5 mps 745 mmHg 59%
12:00 +2°C° 0.1 mm 5 mps 745 mmHg 56%
13:00 +3°C° 0.1 mm 5 mps 745 mmHg 52%
14:00 +4°C° 0.1 mm 6 mps 745 mmHg 49%
15:00 +5°C° 0.2 mm 5 mps 745 mmHg 51%
16:00 +5°C° 0.2 mm 5 mps 745 mmHg 54%
17:00 +5°C° 0.2 mm 5 mps 745 mmHg 56%
18:00 +4°C° 0.1 mm 4 mps 745 mmHg 64%
19:00 +2°C° 0.1 mm 3 mps 745 mmHg 72%
20:00 +1°C° 0.1 mm 3 mps 745 mmHg 80%
21:00 +1°C° 0 mm 3 mps 745 mmHg 83%
22:00 0°C° 0 mm 3 mps 745 mmHg 86%
23:00 +1°C° 0 mm 2 mps 745 mmHg 88%

26 April, Monday

Time Temperature Precipitation Wind Pressure Humidity
00:00 -1°C° 0 mm 2 mps 745 mmHg 90%
01:00 -1°C° 0 mm 2 mps 744 mmHg 91%
02:00 -2°C° 0 mm 2 mps 744 mmHg 93%
03:00 -2°C° 0 mm 2 mps 744 mmHg 93%
04:00 -2°C° 0 mm 2 mps 744 mmHg 93%
05:00 -2°C° 0 mm 2 mps 744 mmHg 93%
06:00 -1°C° 0 mm 3 mps 744 mmHg 86%
07:00 0°C° 0 mm 3 mps 744 mmHg 79%
08:00 0°C° 0 mm 4 mps 744 mmHg 72%
09:00 +1°C° 0.1 mm 4 mps 744 mmHg 67%
10:00 +3°C° 0.1 mm 4 mps 744 mmHg 62%
11:00 +3°C° 0.1 mm 5 mps 744 mmHg 57%
12:00 +3°C° 0.1 mm 5 mps 744 mmHg 55%
13:00 +5°C° 0.1 mm 5 mps 744 mmHg 53%
14:00 +5°C° 0.1 mm 5 mps 744 mmHg 51%
15:00 +5°C° 0.2 mm 5 mps 743 mmHg 53%
16:00 +5°C° 0.2 mm 4 mps 743 mmHg 56%
17:00 +5°C° 0.2 mm 4 mps 743 mmHg 59%
18:00 +3°C° 0 mm 4 mps 743 mmHg 65%
19:00 +2°C° 0 mm 3 mps 743 mmHg 71%
20:00 +2°C° 0 mm 2 mps 743 mmHg 77%
21:00 0°C° 0 mm 3 mps 743 mmHg 80%
22:00 0°C° 0 mm 3 mps 742 mmHg 84%
23:00 0°C° 0 mm 3 mps 742 mmHg 87%

27 April, Tuesday

Time Temperature Precipitation Wind Pressure Humidity
00:00 0°C° 0 mm 3 mps 742 mmHg 86%
01:00 0°C° 0 mm 4 mps 742 mmHg 85%
02:00 0°C° 0 mm 4 mps 742 mmHg 84%
03:00 0°C° 0 mm 4 mps 742 mmHg 86%
04:00 +1°C° 0 mm 3 mps 742 mmHg 88%
05:00 +1°C° 0 mm 3 mps 742 mmHg 90%
06:00 +1°C° 0 mm 3 mps 743 mmHg 88%
07:00 +1°C° 0 mm 3 mps 743 mmHg 87%
08:00 +2°C° 0 mm 3 mps 743 mmHg 86%
09:00 +2°C° 0 mm 3 mps 743 mmHg 82%
10:00 +3°C° 0 mm 4 mps 744 mmHg 78%
11:00 +4°C° 0 mm 4 mps 744 mmHg 74%
12:00 +4°C° 0.1 mm 4 mps 744 mmHg 78%
13:00 +4°C° 0.1 mm 4 mps 744 mmHg 83%
14:00 +4°C° 0.1 mm 4 mps 744 mmHg 88%
15:00 +4°C° 0 mm 4 mps 744 mmHg 83%
16:00 +5°C° 0 mm 3 mps 744 mmHg 79%
17:00 +5°C° 0 mm 3 mps 744 mmHg 74%
18:00 +4°C° 0.1 mm 3 mps 744 mmHg 79%
19:00 +4°C° 0.1 mm 2 mps 744 mmHg 84%
20:00 +4°C° 0.1 mm 2 mps 744 mmHg 90%
21:00 +3°C° 0 mm 2 mps 744 mmHg 91%
22:00 +2°C° 0 mm 2 mps 744 mmHg 92%
23:00 +2°C° 0 mm 2 mps 744 mmHg 93%
Show more